Location: Saint-Palais-sur-Mer
(45.6429°N, 1.0859°W)
Time: 14:00:41
(UTC+01:00)

ARIANE 6 FM1 Upper Stage - Pass Details

Date: 20 January 2026
Orbit: 522 x 609 km, 62.0° (Epoch: 13 February)

Event Time Altitude Azimuth Distance (km) Brightness Sun altitude
Rises 20:09:08 0° 202° (SSW) 2,711 6.5 -23.4°
Reaches altitude 10° 20:11:25 10° 196° (SSW) 1,807 5.5 -23.8°
Enters shadow 20:13:15 24° 182° (S) 1,152 4.3 -24.1°
